Time,TemperatureF,DewpointF,PressureIn,WindDirection,WindDirectionDegrees,WindSpeedMPH,WindSpeedGustMPH,Humidity,HourlyPrecipIn,Conditions,Clouds,dailyrainin,SoftwareType,DateUTC
2013-02-22 00:02:00,33.0,-99.9,30.31,North,4,4.0,10.0,-999,-99.99,,,-99.99,,2013-02-22 05:02:00,
2013-02-22 00:12:00,34.0,-99.9,30.31,North,4,6.0,10.0,-999,-99.99,,,-99.99,,2013-02-22 05:12:00,
2013-02-22 00:22:00,-999.0,-99.9,30.31,NNE,19,4.0,12.0,-999,-99.99,,,-99.99,,2013-02-22 05:22:00,
2013-02-22 00:32:00,34.0,-99.9,30.30,North,6,6.0,12.0,-999,-99.99,,,-99.99,,2013-02-22 05:32:00,
2013-02-22 00:42:00,-999.0,-99.9,30.30,NNE,14,5.0,10.0,-999,-99.99,,,-99.99,,2013-02-22 05:42:00,
2013-02-22 00:52:00,-999.0,-99.9,30.31,North,3,10.0,15.0,-999,-99.99,,,-99.99,,2013-02-22 05:52:00,
2013-02-22 01:02:00,34.0,-99.9,30.31,North,2,5.0,14.0,-999,-99.99,,,-99.99,,2013-02-22 06:02:00,
2013-02-22 01:12:00,-999.0,-99.9,30.32,NNE,13,7.0,12.0,-999,-99.99,,,-99.99,,2013-02-22 06:12:00,
2013-02-22 01:22:00,34.0,-99.9,30.32,North,-999,-999.0,-999.0,-999,-99.99,,,-99.99,,2013-02-22 06:22:00,
2013-02-22 01:32:00,33.0,-99.9,30.32,North,6,5.0,9.0,-999,-99.99,,,-99.99,,2013-02-22 06:32:00,
2013-02-22 01:42:00,33.0,-99.9,30.30,North,5,8.0,11.0,-999,-99.99,,,-99.99,,2013-02-22 06:42:00,
2013-02-22 01:52:00,33.0,-99.9,30.30,North,-999,-999.0,-999.0,-999,-99.99,,,-99.99,,2013-02-22 06:52:00,
2013-02-22 02:01:00,33.0,-99.9,30.31,North,358,6.0,13.0,-999,-99.99,,,-99.99,,2013-02-22 07:01:00,
2013-02-22 02:11:00,-999.0,-99.9,30.31,North,8,5.0,9.0,-999,-99.99,,,-99.99,,2013-02-22 07:11:00,
2013-02-22 02:22:00,-999.0,-99.9,30.33,North,7,5.0,11.0,-999,-99.99,,,-99.99,,2013-02-22 07:22:00,
2013-02-22 02:32:00,33.0,-99.9,30.32,North,6,5.0,11.0,-999,-99.99,,,-99.99,,2013-02-22 07:32:00,
2013-02-22 02:42:00,33.0,-99.9,30.33,North,356,3.0,6.0,-999,-99.99,,,-99.99,,2013-02-22 07:42:00,
2013-02-22 02:52:00,-999.0,-99.9,30.33,North,357,2.0,8.0,-999,-99.99,,,-99.99,,2013-02-22 07:52:00,
2013-02-22 03:01:00,33.0,-99.9,30.34,NNW,345,4.0,5.0,-999,-99.99,,,-99.99,,2013-02-22 08:01:00,
2013-02-22 03:11:00,-999.0,-99.9,30.34,North,356,4.0,6.0,-999,-99.99,,,-99.99,,2013-02-22 08:11:00,
2013-02-22 03:21:00,-999.0,-99.9,30.34,NW,321,4.0,7.0,-999,-99.99,,,-99.99,,2013-02-22 08:21:00,
2013-02-22 03:32:00,33.0,-99.9,30.35,North,354,5.0,7.0,-999,-99.99,,,-99.99,,2013-02-22 08:32:00,
2013-02-22 03:42:00,33.0,-99.9,30.35,North,-999,-999.0,-999.0,-999,-99.99,,,-99.99,,2013-02-22 08:42:00,
2013-02-22 03:52:00,33.0,-99.9,30.35,North,-999,-999.0,-999.0,-999,-99.99,,,-99.99,,2013-02-22 08:52:00,
2013-02-22 04:03:00,33.0,-99.9,30.37,WNW,302,4.0,6.0,-999,-99.99,,,-99.99,,2013-02-22 09:03:00,
2013-02-22 04:11:00,33.0,-99.9,30.37,NW,317,8.0,9.0,-999,-99.99,,,-99.99,,2013-02-22 09:11:00,
2013-02-22 04:22:00,33.0,-99.9,30.37,North,-999,-999.0,-999.0,-999,-99.99,,,-99.99,,2013-02-22 09:22:00,
2013-02-22 04:32:00,33.0,-99.9,30.38,NW,320,6.0,8.0,-999,-99.99,,,-99.99,,2013-02-22 09:32:00,
2013-02-22 04:42:00,33.0,-99.9,30.38,North,-999,-999.0,-999.0,-999,-99.99,,,-99.99,,2013-02-22 09:42:00,
2013-02-22 04:52:00,32.0,-99.9,30.37,North,-999,-999.0,-999.0,-999,-99.99,,,-99.99,,2013-02-22 09:52:00,
2013-02-22 05:01:00,-999.0,-99.9,30.38,NW,307,6.0,8.0,-999,-99.99,,,-99.99,,2013-02-22 10:01:00,
2013-02-22 05:11:00,-999.0,-99.9,30.38,NW,312,5.0,6.0,-999,-99.99,,,-99.99,,2013-02-22 10:11:00,
2013-02-22 05:22:00,-999.0,-99.9,30.38,NW,316,5.0,6.0,-999,-99.99,,,-99.99,,2013-02-22 10:22:00,
2013-02-22 05:32:00,32.0,-99.9,30.36,NNE,30,2.0,4.0,-999,-99.99,,,-99.99,,2013-02-22 10:32:00,
2013-02-22 05:42:00,33.0,-99.9,30.34,NE,46,4.0,8.0,-999,-99.99,,,-99.99,,2013-02-22 10:42:00,
2013-02-22 05:52:00,33.0,-99.9,30.35,North,-999,-999.0,-999.0,-999,-99.99,,,-99.99,,2013-02-22 10:52:00,
2013-02-22 06:01:00,33.0,-99.9,30.37,NE,35,3.0,4.0,-999,-99.99,,,-99.99,,2013-02-22 11:01:00,
2013-02-22 06:11:00,-999.0,-99.9,30.36,ENE,61,4.0,6.0,-999,-99.99,,,-99.99,,2013-02-22 11:11:00,
2013-02-22 06:22:00,-999.0,-99.9,30.36,ENE,63,4.0,6.0,-999,-99.99,,,-99.99,,2013-02-22 11:22:00,
2013-02-22 06:32:00,33.0,-99.9,30.36,NE,38,3.0,7.0,-999,-99.99,,,-99.99,,2013-02-22 11:32:00,
2013-02-22 06:42:00,-999.0,-99.9,30.35,NE,52,5.0,9.0,-999,-99.99,,,-99.99,,2013-02-22 11:42:00,
2013-02-22 06:52:00,32.0,-99.9,30.35,North,-999,-999.0,-999.0,-999,-99.99,,,-99.99,,2013-02-22 11:52:00,
2013-02-22 07:02:00,32.0,-99.9,30.35,NNE,33,5.0,10.0,-999,-99.99,,,-99.99,,2013-02-22 12:02:00,
2013-02-22 07:11:00,32.0,-99.9,30.37,NNE,14,2.0,9.0,-999,-99.99,,,-99.99,,2013-02-22 12:11:00,
2013-02-22 07:22:00,32.0,-99.9,30.37,North,-999,-999.0,-999.0,-999,-99.99,,,-99.99,,2013-02-22 12:22:00,
2013-02-22 07:32:00,-999.0,-99.9,30.37,NNE,27,4.0,7.0,-999,-99.99,,,-99.99,,2013-02-22 12:32:00,
2013-02-22 07:42:00,32.0,-99.9,30.37,North,-999,-999.0,-999.0,-999,-99.99,,,-99.99,,2013-02-22 12:42:00,
2013-02-22 07:52:00,-999.0,-99.9,30.38,NE,52,5.0,6.0,-999,-99.99,,,-99.99,,2013-02-22 12:52:00,
2013-02-22 08:02:00,32.0,-99.9,30.38,ENE,66,5.0,9.0,-999,-99.99,,,-99.99,,2013-02-22 13:02:00,
2013-02-22 08:11:00,32.0,-99.9,30.39,North,-999,-999.0,-999.0,-999,-99.99,,,-99.99,,2013-02-22 13:11:00,
2013-02-22 08:22:00,32.0,-99.9,30.39,North,-999,-999.0,-999.0,-999,-99.99,,,-99.99,,2013-02-22 13:22:00,
2013-02-22 08:32:00,-999.0,-99.9,30.38,NE,40,5.0,9.0,-999,-99.99,,,-99.99,,2013-02-22 13:32:00,
2013-02-22 08:42:00,32.0,-99.9,30.38,ENE,67,2.0,7.0,-999,-99.99,,,-99.99,,2013-02-22 13:42:00,
2013-02-22 08:52:00,32.0,-99.9,30.39,North,-999,-999.0,-999.0,-999,-99.99,,,-99.99,,2013-02-22 13:52:00,
2013-02-22 09:01:00,33.0,-99.9,30.37,East,80,3.0,7.0,-999,-99.99,,,-99.99,,2013-02-22 14:01:00,
2013-02-22 09:11:00,-999.0,-99.9,30.37,ENE,60,6.0,9.0,-999,-99.99,,,-99.99,,2013-02-22 14:11:00,
2013-02-22 09:22:00,32.0,-99.9,30.36,North,-999,-999.0,-999.0,-999,-99.99,,,-99.99,,2013-02-22 14:22:00,
2013-02-22 09:32:00,33.0,-99.9,30.36,East,90,4.0,9.0,-999,-99.99,,,-99.99,,2013-02-22 14:32:00,
2013-02-22 09:42:00,32.0,-99.9,30.35,North,-999,-999.0,-999.0,-999,-99.99,,,-99.99,,2013-02-22 14:42:00,
2013-02-22 09:53:00,32.0,-99.9,30.34,North,-999,-999.0,-999.0,-999,-99.99,,,-99.99,,2013-02-22 14:53:00,
2013-02-22 10:02:00,33.0,-99.9,30.34,East,98,5.0,9.0,-999,-99.99,,,-99.99,,2013-02-22 15:02:00,
2013-02-22 10:12:00,33.0,-99.9,30.34,East,95,5.0,10.0,-999,-99.99,,,-99.99,,2013-02-22 15:12:00,
2013-02-22 10:22:00,-999.0,-99.9,30.34,East,80,5.0,9.0,-999,-99.99,,,-99.99,,2013-02-22 15:22:00,
2013-02-22 10:32:00,33.0,-99.9,30.34,East,84,4.0,11.0,-999,-99.99,,,-99.99,,2013-02-22 15:32:00,
2013-02-22 10:42:00,33.0,-99.9,30.34,ESE,104,7.0,13.0,-999,-99.99,,,-99.99,,2013-02-22 15:42:00,
2013-02-22 10:52:00,-999.0,-99.9,30.34,ESE,111,5.0,9.0,-999,-99.99,,,-99.99,,2013-02-22 15:52:00,
2013-02-22 11:02:00,33.0,-99.9,30.33,East,101,6.0,11.0,-999,-99.99,,,-99.99,,2013-02-22 16:02:00,
2013-02-22 11:12:00,33.0,-99.9,30.33,North,-999,-999.0,-999.0,-999,-99.99,,,-99.99,,2013-02-22 16:12:00,
2013-02-22 11:22:00,33.0,-99.9,30.33,North,-999,-999.0,-999.0,-999,-99.99,,,-99.99,,2013-02-22 16:22:00,
2013-02-22 11:32:00,33.0,-99.9,30.34,SSE,153,9.0,10.0,-999,-99.99,,,-99.99,,2013-02-22 16:32:00,
2013-02-22 11:42:00,33.0,-99.9,30.35,ESE,109,4.0,8.0,-999,-99.99,,,-99.99,,2013-02-22 16:42:00,
2013-02-22 11:52:00,33.0,-99.9,30.35,North,-999,-999.0,-999.0,-999,-99.99,,,-99.99,,2013-02-22 16:52:00,
2013-02-22 12:01:00,34.0,-99.9,30.35,ESE,110,2.0,7.0,-999,-99.99,,,-99.99,,2013-02-22 17:01:00,
2013-02-22 12:12:00,33.0,-99.9,30.34,SSE,164,6.0,9.0,-999,-99.99,,,-99.99,,2013-02-22 17:12:00,
2013-02-22 12:22:00,-999.0,-99.9,30.34,SE,142,3.0,8.0,-999,-99.99,,,-99.99,,2013-02-22 17:22:00,
2013-02-22 12:32:00,33.0,-99.9,30.34,SSE,160,6.0,8.0,-999,-99.99,,,-99.99,,2013-02-22 17:32:00,
2013-02-22 12:42:00,33.0,-99.9,30.34,North,-999,-999.0,-999.0,-999,-99.99,,,-99.99,,2013-02-22 17:42:00,
2013-02-22 12:52:00,-999.0,-99.9,30.33,South,179,6.0,9.0,-999,-99.99,,,-99.99,,2013-02-22 17:52:00,
2013-02-22 13:02:00,33.0,-99.9,30.33,SSE,148,2.0,7.0,-999,-99.99,,,-99.99,,2013-02-22 18:02:00,
2013-02-22 13:12:00,33.0,-99.9,30.32,North,-999,-999.0,-999.0,-999,-99.99,,,-99.99,,2013-02-22 18:12:00,
2013-02-22 13:23:00,33.0,-99.9,30.32,North,-999,-999.0,-999.0,-999,-99.99,,,-99.99,,2013-02-22 18:23:00,
2013-02-22 13:32:00,33.0,-99.9,30.32,South,188,5.0,6.0,-999,-99.99,,,-99.99,,2013-02-22 18:32:00,
2013-02-22 13:42:00,33.0,-99.9,30.32,South,188,5.0,6.0,-999,-99.99,,,-99.99,,2013-02-22 18:42:00,
2013-02-22 13:52:00,33.0,-99.9,30.32,South,188,5.0,6.0,-999,-99.99,,,-99.99,,2013-02-22 18:52:00,
2013-02-22 14:01:00,33.0,-99.9,30.32,South,188,5.0,6.0,-999,-99.99,,,-99.99,,2013-02-22 19:01:00,
2013-02-22 14:42:00,32.0,-99.9,30.32,North,-999,-999.0,-999.0,-999,-99.99,,,-99.99,,2013-02-22 19:42:00,
2013-02-22 14:52:00,-999.0,-99.9,30.30,SSE,157,2.0,2.0,-999,-99.99,,,-99.99,,2013-02-22 19:52:00,
2013-02-22 15:01:00,32.0,-99.9,30.29,SSE,156,2.0,3.0,-999,-99.99,,,-99.99,,2013-02-22 20:01:00,
2013-02-22 15:11:00,33.0,-99.9,30.29,South,171,3.0,4.0,-999,-99.99,,,-99.99,,2013-02-22 20:11:00,
2013-02-22 15:22:00,-999.0,-99.9,30.29,SSW,199,3.0,6.0,-999,-99.99,,,-99.99,,2013-02-22 20:22:00,
2013-02-22 15:32:00,33.0,-99.9,30.29,SE,130,6.0,7.0,-999,-99.99,,,-99.99,,2013-02-22 20:32:00,
2013-02-22 15:42:00,-999.0,-99.9,30.29,SSE,155,5.0,7.0,-999,-99.99,,,-99.99,,2013-02-22 20:42:00,
2013-02-22 15:52:00,33.0,-99.9,30.29,North,-999,-999.0,-999.0,-999,-99.99,,,-99.99,,2013-02-22 20:52:00,
2013-02-22 16:02:00,33.0,-99.9,30.29,South,169,6.0,7.0,-999,-99.99,,,-99.99,,2013-02-22 21:02:00,
2013-02-22 16:11:00,33.0,-99.9,30.29,SSE,165,4.0,7.0,-999,-99.99,,,-99.99,,2013-02-22 21:11:00,
2013-02-22 16:22:00,-999.0,-99.9,30.29,SSE,155,3.0,5.0,-999,-99.99,,,-99.99,,2013-02-22 21:22:00,
2013-02-22 16:32:00,33.0,-99.9,30.29,SSE,148,3.0,6.0,-999,-99.99,,,-99.99,,2013-02-22 21:32:00,
2013-02-22 16:42:00,33.0,-99.9,30.29,North,-999,-999.0,-999.0,-999,-99.99,,,-99.99,,2013-02-22 21:42:00,
2013-02-22 16:52:00,-999.0,-99.9,30.29,SE,136,2.0,4.0,-999,-99.99,,,-99.99,,2013-02-22 21:52:00,
2013-02-22 17:01:00,33.0,-99.9,30.29,SSE,147,4.0,6.0,-999,-99.99,,,-99.99,,2013-02-22 22:01:00,
2013-02-22 17:11:00,33.0,-99.9,30.29,North,-999,-999.0,-999.0,-999,-99.99,,,-99.99,,2013-02-22 22:11:00,
2013-02-22 17:22:00,-999.0,-99.9,30.28,SE,134,3.0,6.0,-999,-99.99,,,-99.99,,2013-02-22 22:22:00,
2013-02-22 17:32:00,33.0,-99.9,30.27,ESE,105,3.0,6.0,-999,-99.99,,,-99.99,,2013-02-22 22:32:00,
2013-02-22 17:42:00,33.0,-99.9,30.28,SE,134,5.0,7.0,-999,-99.99,,,-99.99,,2013-02-22 22:42:00,
2013-02-22 17:52:00,34.0,-99.9,30.28,North,-999,-999.0,-999.0,-999,-99.99,,,-99.99,,2013-02-22 22:52:00,
2013-02-22 18:01:00,33.0,-99.9,30.28,SSE,152,5.0,6.0,-999,-99.99,,,-99.99,,2013-02-22 23:01:00,
2013-02-22 18:11:00,-999.0,-99.9,30.28,SSE,150,5.0,8.0,-999,-99.99,,,-99.99,,2013-02-22 23:11:00,
2013-02-22 18:21:00,-999.0,-99.9,30.28,SE,136,4.0,6.0,-999,-99.99,,,-99.99,,2013-02-22 23:21:00,
2013-02-22 18:32:00,33.0,-99.9,30.28,SE,140,6.0,7.0,-999,-99.99,,,-99.99,,2013-02-22 23:32:00,
2013-02-22 18:42:00,-999.0,-99.9,30.28,SE,132,4.0,6.0,-999,-99.99,,,-99.99,,2013-02-22 23:42:00,
2013-02-22 18:52:00,-999.0,-99.9,30.28,SE,125,5.0,7.0,-999,-99.99,,,-99.99,,2013-02-22 23:52:00,
2013-02-22 19:02:00,33.0,-99.9,30.28,SE,134,4.0,5.0,-999,-99.99,,,-99.99,,2013-02-23 00:02:00,
2013-02-22 19:11:00,33.0,-99.9,30.27,SE,131,3.0,6.0,-999,-99.99,,,-99.99,,2013-02-23 00:11:00,
2013-02-22 19:22:00,33.0,-99.9,30.27,North,-999,-999.0,-999.0,-999,-99.99,,,-99.99,,2013-02-23 00:22:00,
2013-02-22 19:32:00,33.0,-99.9,30.27,ESE,102,3.0,5.0,-999,-99.99,,,-99.99,,2013-02-23 00:32:00,
2013-02-22 19:42:00,33.0,-99.9,30.27,North,-999,-999.0,-999.0,-999,-99.99,,,-99.99,,2013-02-23 00:42:00,
2013-02-22 19:52:00,33.0,-99.9,30.27,North,-999,-999.0,-999.0,-999,-99.99,,,-99.99,,2013-02-23 00:52:00,
2013-02-22 20:01:00,33.0,-99.9,30.27,East,93,5.0,6.0,-999,-99.99,,,-99.99,,2013-02-23 01:01:00,
2013-02-22 20:11:00,-999.0,-99.9,30.27,East,98,5.0,6.0,-999,-99.99,,,-99.99,,2013-02-23 01:11:00,
2013-02-22 20:22:00,-999.0,-99.9,30.27,ESE,108,3.0,4.0,-999,-99.99,,,-99.99,,2013-02-23 01:22:00,
2013-02-22 20:32:00,34.0,-99.9,30.27,ESE,116,3.0,4.0,-999,-99.99,,,-99.99,,2013-02-23 01:32:00,
2013-02-22 20:42:00,34.0,-99.9,30.26,ESE,115,3.0,6.0,-999,-99.99,,,-99.99,,2013-02-23 01:42:00,
2013-02-22 20:52:00,-999.0,-99.9,30.27,ESE,105,2.0,6.0,-999,-99.99,,,-99.99,,2013-02-23 01:52:00,
2013-02-22 21:01:00,34.0,-99.9,30.27,ESE,112,2.0,4.0,-999,-99.99,,,-99.99,,2013-02-23 02:01:00,
2013-02-22 21:11:00,-999.0,-99.9,30.26,East,93,3.0,5.0,-999,-99.99,,,-99.99,,2013-02-23 02:11:00,
2013-02-22 21:22:00,34.0,-99.9,30.26,North,-999,-999.0,-999.0,-999,-99.99,,,-99.99,,2013-02-23 02:22:00,
2013-02-22 21:32:00,34.0,-99.9,30.26,East,98,4.0,6.0,-999,-99.99,,,-99.99,,2013-02-23 02:32:00,
2013-02-22 21:42:00,34.0,-99.9,30.26,East,88,2.0,5.0,-999,-99.99,,,-99.99,,2013-02-23 02:42:00,
2013-02-22 21:52:00,-999.0,-99.9,30.26,SE,126,3.0,5.0,-999,-99.99,,,-99.99,,2013-02-23 02:52:00,
2013-02-22 22:02:00,34.0,-99.9,30.26,SE,126,3.0,4.0,-999,-99.99,,,-99.99,,2013-02-23 03:02:00,
2013-02-22 22:11:00,-999.0,-99.9,30.25,East,100,3.0,5.0,-999,-99.99,,,-99.99,,2013-02-23 03:11:00,
2013-02-22 22:22:00,-999.0,-99.9,30.25,ESE,104,3.0,5.0,-999,-99.99,,,-99.99,,2013-02-23 03:22:00,
2013-02-22 22:32:00,34.0,-99.9,30.25,East,98,4.0,5.0,-999,-99.99,,,-99.99,,2013-02-23 03:32:00,
2013-02-22 22:42:00,-999.0,-99.9,30.25,ESE,117,2.0,4.0,-999,-99.99,,,-99.99,,2013-02-23 03:42:00,
2013-02-22 22:52:00,-999.0,-99.9,30.25,East,94,3.0,5.0,-999,-99.99,,,-99.99,,2013-02-23 03:52:00,
2013-02-22 23:01:00,34.0,-99.9,30.24,ESE,104,3.0,4.0,-999,-99.99,,,-99.99,,2013-02-23 04:01:00,
2013-02-22 23:11:00,34.0,-99.9,30.24,SE,131,4.0,6.0,-999,-99.99,,,-99.99,,2013-02-23 04:11:00,
2013-02-22 23:22:00,-999.0,-99.9,30.24,East,88,3.0,3.0,-999,-99.99,,,-99.99,,2013-02-23 04:22:00,
2013-02-22 23:32:00,34.0,-99.9,30.24,SE,125,3.0,3.0,-999,-99.99,,,-99.99,,2013-02-23 04:32:00,
2013-02-22 23:42:00,34.0,-99.9,30.24,North,-999,-999.0,-999.0,-999,-99.99,,,-99.99,,2013-02-23 04:42:00,
2013-02-22 23:52:00,-999.0,-99.9,30.23,SE,131,3.0,3.0,-999,-99.99,,,-99.99,,2013-02-23 04:52:00,